FW3598 Weather Reports


time (UTC)temp
F
wind
direction
speed
knots
gust
knots
rain 1hr
in
rain 24hr
in
rain mn
in
humidity
%
barometer
mb
20220811233204 79 160 3.5 13.9 0.00 0.00 0.00 54 1016.2
20220811232142 79 168 4.3 12.2 0.00 0.00 0.00 54 1016.2
20220811231121 79 189 4.3 11.3 0.00 0.00 0.00 54 1016.2
20220811230121 79 173 4.3 11.3 0.00 0.00 0.00 55 1016.5
20220811225125 78 172 5.2 11.3 0.00 0.00 0.00 56 1016.6
20220811224121 78 198 3.5 10.4 0.00 0.00 0.00 55 1016.8
20220811223125 79 186 3.5 12.2 0.00 0.00 0.00 56 1016.8
20220811222250 78 168 3.5 12.2 0.00 0.00 0.00 58 1016.8
20220811222203 78 173 3.5 8.7 0.00 0.00 0.00 57 1016.8
20220811221203 79 200 4.3 12.2 0.00 0.00 0.00 56 1017.0
20220811220143 79 244 2.6 9.6 0.00 0.00 0.00 57 1017.2
20220811215144 79 211 3.5 11.3 0.00 0.00 0.00 58 1017.2
20220811214124 78 236 3.5 9.6 0.00 0.00 0.00 58 1017.2
20220811213121 79 226 3.5 9.6 0.00 0.00 0.00 58 1017.2
20220811212124 78 271 3.5 9.6 0.00 0.00 0.00 59 1017.2
20220811211121 79 293 3.5 10.4 0.00 0.00 0.00 59 1017.4
20220811210121 78 300 3.5 10.4 0.00 0.00 0.00 60 1017.5
20220811205121 78 186 3.5 10.4 0.00 0.00 0.00 60 1017.6
20220811204121 78 254 3.5 11.3 0.00 0.00 0.00 61 1017.7
20220811203125 78 240 3.5 11.3 0.00 0.00 0.00 62 1017.7
20220811202204 78 206 3.5 9.6 0.00 0.00 0.00 61 1017.7
20220811201125 78 193 3.5 13.0 0.00 0.00 0.00 61 1017.7
20220811200122 78 146 2.6 8.7 0.00 0.00 0.00 58 1017.9
20220811195122 77 140 3.5 11.3 0.00 0.00 0.00 59 1017.9
20220811194143 77 159 3.5 8.7 0.00 0.00 0.00 60 1018.0
20220811193122 76 133 3.5 10.4 0.00 0.00 0.00 60 1018.1
20220811192125 76 123 4.3 9.6 0.00 0.00 0.00 61 1018.1
20220811191143 76 122 2.6 8.7 0.00 0.00 0.00 62 1018.2
20220811190147 77 158 2.6 7.8 0.00 0.00 0.00 60 1018.4
20220811185123 74 171 2.6 7.0 0.00 0.00 0.00 64 1018.4
20220811184122 75 115 1.7 8.7 0.00 0.00 0.00 63 1018.6
20220811183122 74 129 2.6 8.7 0.00 0.00 0.00 64 1018.7
20220811182122 73 135 2.6 7.0 0.00 0.00 0.00 67 1018.7
20220811181207 72 129 3.5 7.0 0.00 0.00 0.00 67 1018.7
20220811180204 72 152 2.6 7.8 0.00 0.00 0.00 68 1018.8
20220811175207 72 132 1.7 6.1 0.00 0.00 0.00 68 1018.8
20220811174143 72 108 2.6 7.0 0.00 0.00 0.00 68 1018.9
20220811173122 72 116 2.6 9.6 0.00 0.00 0.00 69 1018.8
20220811172143 71 132 1.7 7.0 0.00 0.00 0.00 71 1018.8
20220811171204 70 142 2.6 7.8 0.00 0.00 0.00 72 1018.8
20220811170143 70 153 2.6 7.0 0.00 0.00 0.00 72 1019.0
20220811165143 69 123 2.6 7.0 0.00 0.00 0.00 73 1018.9
20220811164125 69 145 3.5 7.8 0.00 0.00 0.00 75 1019.0
20220811163122 68 141 2.6 7.0 0.00 0.00 0.00 77 1019.0
20220811162122 67 167 1.7 6.1 0.00 0.00 0.00 78 1019.0
20220811161143 66 144 2.6 7.0 0.00 0.00 0.00 82 1019.1
20220811160122 65 121 2.6 7.8 0.00 0.00 0.00 83 1019.2
20220811155208 65 148 2.6 7.0 0.00 0.00 0.00 84 1019.1
20220811154143 64 101 2.6 7.0 0.00 0.00 0.00 85 1019.2
20220811153207 64 114 2.6 8.7 0.00 0.00 0.00 85 1019.2
20220811152144 63 109 2.6 7.0 0.00 0.00 0.00 86 1019.2
20220811151122 63 85 0.9 3.5 0.00 0.00 0.00 88 1019.2
20220811150122 62 101 2.6 7.0 0.00 0.00 0.00 89 1019.2
20220811145204 62 101 0.9 3.5 0.00 0.00 0.00 92 1019.2
20220811144207 61 114 0.9 4.3 0.00 0.00 0.00 93 1019.2
20220811143122 61 96 0.9 5.2 0.00 0.00 0.00 94 1019.2
20220811142122 60 101 1.7 6.1 0.00 0.00 0.00 94 1019.2
20220811141143 60 127 0.9 3.5 0.00 0.00 0.00 94 1019.2
20220811140143 60 101 0.9 3.5 0.00 0.00 0.00 94 1019.2
20220811135143 60 116 0.9 6.1 0.00 0.00 0.00 94 1019.4
20220811134143 60 147 0.0 3.5 0.00 0.00 0.00 93 1019.2
20220811133122 60 104 0.9 4.3 0.00 0.00 0.00 93 1019.2
20220811132143 60 135 0.9 5.2 0.00 0.00 0.00 92 1019.2
20220811131125 60 106 0.9 5.2 0.00 0.00 0.00 91 1019.1
20220811130204 60 134 0.0 2.6 0.00 0.00 0.00 89 1019.1
20220811125146 60 123 0.9 2.6 0.00 0.00 0.00 89 1019.0
20220811124122 61 122 0.9 3.5 0.00 0.00 0.00 88 1019.0
20220811123143 61 105 0.0 2.6 0.00 0.00 0.00 88 1018.9
20220811122146 61 56 0.0 1.7 0.00 0.00 0.00 87 1018.9
20220811121123 61 45 0.0 0.0 0.00 0.00 0.00 86 1018.8
20220811120204 61 75 0.0 2.6 0.00 0.00 0.00 86 1018.9
20220811115204 62 94 0.0 2.6 0.00 0.00 0.00 85 1018.9
20220811114207 62 101 0.0 2.6 0.00 0.00 0.00 85 1019.2
20220811113204 62 118 0.9 3.5 0.00 0.00 0.00 85 1019.1
20220811112122 62 104 1.7 5.2 0.00 0.00 0.00 85 1019.1
20220811111204 63 101 0.9 3.5 0.00 0.00 0.00 84 1019.1
20220811110204 63 88 0.9 4.3 0.00 0.00 0.00 84 1019.2
20220811105207 63 82 0.9 3.5 0.00 0.00 0.00 84 1019.2
20220811104122 63 97 0.9 3.5 0.00 0.00 0.00 83 1019.4
20220811103147 64 105 1.7 7.0 0.00 0.00 0.00 83 1019.4
20220811102122 64 99 1.7 6.1 0.00 0.00 0.00 83 1019.4
20220811101143 64 112 0.9 6.1 0.00 0.00 0.00 82 1019.4
20220811100124 65 99 1.7 4.3 0.00 0.00 0.00 82 1019.2
20220811095122 65 102 1.7 5.2 0.00 0.00 0.00 81 1019.2
20220811094207 65 113 0.0 4.3 0.00 0.00 0.00 81 1019.4
20220811093122 65 121 0.9 3.5 0.00 0.00 0.00 80 1019.5
20220811092121 65 135 0.9 3.5 0.00 0.00 0.00 80 1019.5
20220811091121 65 110 0.9 3.5 0.00 0.00 0.00 79 1019.6
20220811090143 66 94 0.9 3.5 0.00 0.00 0.00 79 1019.5
20220811085142 66 87 0.9 4.3 0.00 0.00 0.00 79 1019.5
20220811084143 66 101 1.7 7.0 0.00 0.00 0.00 79 1019.5
20220811083203 66 88 3.5 7.8 0.00 0.00 0.00 79 1019.5
20220811082142 66 108 1.7 7.0 0.00 0.00 0.00 79 1019.5
20220811081142 66 92 2.6 7.0 0.00 0.00 0.00 79 1019.5
20220811080142 66 98 2.6 7.0 0.00 0.00 0.00 79 1019.4
20220811075122 67 102 3.5 9.6 0.00 0.00 0.00 79 1019.5
20220811074142 67 101 3.5 12.2 0.00 0.00 0.00 79 1019.4
20220811073143 67 101 2.6 8.7 0.00 0.00 0.00 79 1019.2
20220811072203 67 96 2.6 7.8 0.00 0.00 0.00 79 1019.2
20220811071203 67 76 1.7 6.1 0.00 0.00 0.00 79 1019.4
20220811070142 67 79 1.7 7.0 0.00 0.00 0.00 79 1019.2
20220811065203 67 88 0.9 5.2 0.00 0.00 0.00 79 1019.2
20220811064142 67 91 0.9 7.8 0.00 0.00 0.00 79 1019.2
20220811063121 67 45 0.9 4.3 0.00 0.00 0.00 79 1019.2
20220811062142 67 81 0.9 7.0 0.00 0.00 0.00 79 1019.2
20220811061121 67 85 1.7 7.0 0.00 0.00 0.00 79 1019.2
20220811060121 67 81 0.9 6.1 0.00 0.00 0.00 79 1019.1
20220811055121 67 80 0.9 6.1 0.00 0.00 0.00 79 1019.2
20220811054203 67 82 1.7 7.0 0.00 0.00 0.00 79 1019.0
20220811053121 67 95 2.6 7.8 0.00 0.00 0.00 79 1019.1
20220811052142 66 80 2.6 8.7 0.00 0.00 0.00 80 1019.1
20220811051142 66 71 2.6 9.6 0.00 0.00 0.00 80 1019.0
20220811050142 66 97 3.5 11.3 0.00 0.00 0.00 81 1018.9
20220811045203 66 93 2.6 7.0 0.00 0.00 0.00 82 1019.0
20220811044142 66 94 2.6 7.0 0.00 0.00 0.00 82 1018.8
20220811043142 66 95 2.6 7.0 0.00 0.00 0.00 82 1018.8
20220811042121 66 106 1.7 7.0 0.00 0.00 0.00 82 1018.8
20220811041121 66 93 1.7 6.1 0.00 0.00 0.00 82 1018.8
20220811040203 66 98 3.5 10.4 0.00 0.00 0.00 82 1018.8
20220811035203 66 103 3.5 8.7 0.00 0.00 0.00 82 1018.5
20220811034121 67 117 2.6 7.0 0.00 0.00 0.00 81 1018.4
20220811033203 67 83 0.9 3.5 0.00 0.00 0.00 81 1018.2
20220811032121 67 89 0.9 7.0 0.00 0.00 0.00 81 1018.2
20220811031121 67 95 1.7 7.0 0.00 0.00 0.00 81 1018.2
20220811030121 67 89 0.9 6.1 0.00 0.00 0.00 82 1018.2
20220811025121 67 100 3.5 7.8 0.00 0.00 0.00 82 1018.0
20220811024121 67 85 2.6 8.7 0.00 0.00 0.00 82 1018.0
20220811023142 66 94 4.3 11.3 0.00 0.00 0.00 82 1017.9
20220811022203 67 85 5.2 12.2 0.00 0.00 0.00 81 1017.9
20220811021121 67 104 5.2 14.8 0.00 0.00 0.00 81 1018.0
20220811020142 68 92 4.3 11.3 0.00 0.00 0.00 80 1017.8
20220811015121 69 93 4.3 12.2 0.00 0.00 0.00 78 1017.7
20220811014121 69 89 4.3 12.2 0.00 0.00 0.00 78 1017.5
20220811013143 71 78 4.3 13.9 0.00 0.00 0.00 76 1017.4
20220811012204 72 113 4.3 13.9 0.00 0.00 0.00 75 1017.4
20220811011121 70 88 4.3 13.9 0.00 0.00 0.00 75 1017.2
20220811010142 71 114 5.2 14.8 0.00 0.00 0.00 75 1017.2
20220811005203 71 109 5.2 13.0 0.00 0.00 0.00 76 1017.1
20220811004203 71 110 4.3 13.0 0.00 0.00 0.00 75 1017.1
20220811003142 71 101 4.3 12.2 0.00 0.00 0.00 74 1016.9
20220811002121 71 107 4.3 11.3 0.00 0.00 0.00 74 1016.9
20220811001142 70 102 4.3 12.2 0.00 0.00 0.00 75 1016.7
20220811000121 72 115 5.2 15.6 0.00 0.00 0.00 74 1016.7
20220810235121 70 108 4.3 11.3 0.00 0.00 0.00 75 1016.6
20220810234121 70 112 4.3 12.2 0.00 0.00 0.00 76 1016.5